Weather History for Princeton, MN

Change the Weather History Date:

Tuesday, November 20, 2012

  Actual Average Record
Temperature  
Mean Temperature 38 °F -  
Max Temperature 51 °F 35 °F 53 °F (2003)
Min Temperature 24 °F 20 °F 1 °F (2011)
Degree Days  
Heating Degree Days 28    
Moisture  
Dew Point 29 °F    
Average Humidity 77    
Maximum Humidity 100    
Minimum Humidity 43    
Precipitation  
Precipitation 0.00 in - - ()
Sea Level Pressure  
Sea Level Pressure 30.11 in    
Wind  
Wind Speed 3 mph (SW)    
Max Wind Speed 9 mph    
Max Gust Speed -    
Visibility 7 miles    
Events Fog    
Averages and records for this station are not official NWS values.
T = Trace of Precipitation, MM = Missing Value Source: NWS Daily Summary

Daily Weather History Graph

Daily Weather History Graph

Search for Another Location

Airport:

Trip Planner

Search our weather history database for the weather conditions in past years. The results will help you decide how hot, cold, wet, or windy it might be!

Date:

Astronomy

Nov. 20, 2012 Rise Set
Actual Time 7:21 AM CST 4:38 PM CST
Civil Twilight 6:48 AM CST 5:11 PM CST
Nautical Twilight 6:12 AM CST 5:47 PM CST
Astronomical Twilight 5:36 AM CST 6:23 PM CST
Moon 12:45 PM CST (11/20) No Moon Set
Length of Visible Light 10h 22m
Length of Day
9h 17m
First Quarter, 51% of the Moon is Illuminated
Nov 20
First Quarter
Nov 28
Full
Dec 6
Last Quarter
Dec 13
New
Dec 19
First Quarter

Hourly Weather History & Observations

Time (CST) Temp. Windchill Dew Point Humidity Pressure Visibility Wind Dir Wind Speed Gust Speed Precip Events Conditions
12:12 AM 37.4 °F - 33.8 °F 87% 30.08 in 10.0 mi Calm Calm - N/A   Clear
12:31 AM 37.4 °F 34.9 °F 33.8 °F 87% 30.09 in 10.0 mi NNW 3.5 mph - N/A   Clear
12:51 AM 37.4 °F 33.8 °F 33.8 °F 87% 30.08 in 10.0 mi NNW 4.6 mph - N/A   Clear
1:11 AM 37.4 °F 33.8 °F 33.8 °F 87% 30.09 in 10.0 mi NNW 4.6 mph - N/A   Clear
1:32 AM 35.6 °F 30.7 °F 33.8 °F 93% 30.10 in 10.0 mi NW 5.8 mph - N/A   Clear
1:51 AM 35.6 °F 30.7 °F 32.0 °F 87% 30.11 in 10.0 mi NW 5.8 mph - N/A   Clear
2:11 AM 35.6 °F 30.7 °F 32.0 °F 87% 30.12 in 7.0 mi NW 5.8 mph - N/A   Clear
2:32 AM 35.6 °F 31.7 °F 32.0 °F 87% 30.12 in 7.0 mi NNW 4.6 mph - N/A   Clear
2:51 AM 35.6 °F 32.8 °F 32.0 °F 87% 30.12 in 7.0 mi NW 3.5 mph - N/A   Clear
3:11 AM 33.8 °F - 30.2 °F 87% 30.12 in 7.0 mi Calm Calm - N/A   Clear
3:32 AM 32.0 °F - 30.2 °F 93% 30.12 in 5.0 mi Calm Calm - N/A   Clear
3:51 AM 30.2 °F 25.4 °F 28.4 °F 93% 30.14 in 5.0 mi NW 4.6 mph - N/A   Clear
4:11 AM 30.2 °F 26.7 °F 30.2 °F 100% 30.13 in 4.0 mi WNW 3.5 mph - N/A   Clear
4:32 AM 26.6 °F - 24.8 °F 93% 30.13 in 0.8 mi Calm Calm - N/A   Mist
4:51 AM 26.6 °F 21.2 °F 24.8 °F 93% 30.13 in 0.5 mi West 4.6 mph - N/A Fog Light Freezing Fog
5:11 AM 26.6 °F 22.6 °F 26.6 °F 100% 30.14 in 1.0 mi West 3.5 mph - N/A   Clear
5:32 AM 24.8 °F - 23.0 °F 93% 30.13 in 0.2 mi Calm Calm - N/A Fog Light Freezing Fog
5:51 AM 24.8 °F 19.1 °F 23.0 °F 93% 30.13 in 0.2 mi West 4.6 mph - N/A Fog Light Freezing Fog
6:11 AM 24.8 °F - 23.0 °F 93% 30.13 in 0.5 mi Calm Calm - N/A Fog Light Freezing Fog
6:32 AM 26.6 °F 22.6 °F 24.8 °F 93% 30.14 in 0.2 mi West 3.5 mph - N/A Fog Light Freezing Fog
6:51 AM 24.8 °F - 23.0 °F 93% 30.14 in 0.5 mi Calm Calm - N/A Fog Light Freezing Fog
7:11 AM 24.8 °F 19.1 °F 24.8 °F 100% 30.14 in 0.2 mi West 4.6 mph - N/A Fog Light Freezing Fog
7:32 AM 24.8 °F 20.5 °F 23.0 °F 93% 30.15 in 0.5 mi West 3.5 mph - N/A Fog Light Freezing Fog
7:51 AM 24.8 °F - 21.2 °F 86% 30.16 in 0.8 mi Calm Calm - N/A   Overcast
8:11 AM 24.8 °F - 24.8 °F 100% 30.15 in 0.2 mi Calm Calm - N/A Fog Light Freezing Fog
8:32 AM 26.6 °F - 24.8 °F 93% 30.15 in 0.2 mi Calm Calm - N/A Fog Light Freezing Fog
8:51 AM 26.6 °F - 26.6 °F 100% 30.15 in 0.8 mi Calm Calm - N/A   Overcast
9:11 AM 28.4 °F - 28.4 °F 100% 30.15 in 2.5 mi Calm Calm - N/A   Clear
9:31 AM 30.2 °F - 30.2 °F 100% 30.16 in 3.0 mi Calm Calm - N/A   Clear
9:51 AM 33.8 °F - 30.2 °F 87% 30.17 in 5.0 mi Calm Calm - N/A   Clear
10:11 AM 35.6 °F 32.8 °F 33.8 °F 93% 30.17 in 7.0 mi West 3.5 mph - N/A   Clear
10:31 AM 35.6 °F - 33.8 °F 93% 30.17 in 7.0 mi Calm Calm - N/A   Clear
10:51 AM 39.2 °F 35.9 °F 33.8 °F 81% 30.17 in 10.0 mi West 4.6 mph - N/A   Clear
11:11 AM 41.0 °F 38.0 °F 33.8 °F 76% 30.17 in 10.0 mi WSW 4.6 mph - N/A   Clear
11:31 AM 41.0 °F - 33.8 °F 76% 30.15 in 10.0 mi Calm Calm - N/A   Clear
11:51 AM 42.8 °F 41.1 °F 33.8 °F 70% 30.15 in 10.0 mi SW 3.5 mph - N/A   Clear
12:11 PM 44.6 °F - 32.0 °F 61% 30.15 in 10.0 mi Calm Calm - N/A   Clear
12:31 PM 46.4 °F 45.2 °F 32.0 °F 57% 30.13 in 10.0 mi WSW 3.5 mph - N/A   Clear
12:51 PM 46.4 °F 45.2 °F 32.0 °F 57% 30.13 in 10.0 mi West 3.5 mph - N/A   Clear
1:11 PM 48.2 °F - 30.2 °F 50% 30.13 in 10.0 mi Calm Calm - N/A   Clear
1:31 PM 48.2 °F - 30.2 °F 50% 30.12 in 10.0 mi Calm Calm - N/A   Clear
1:51 PM 50.0 °F - 28.4 °F 43% 30.12 in 10.0 mi Calm Calm - N/A   Clear
2:11 PM 50.0 °F - 28.4 °F 43% 30.12 in 10.0 mi Calm Calm - N/A   Clear
2:31 PM 50.0 °F - 30.2 °F 47% 30.11 in 10.0 mi Calm Calm - N/A   Clear
2:51 PM 50.0 °F - 30.2 °F 47% 30.10 in 10.0 mi Calm Calm - N/A   Clear
3:11 PM 51.8 °F - 30.2 °F 44% 30.09 in 10.0 mi SE 4.6 mph - N/A   Clear
3:31 PM 48.2 °F - 28.4 °F 46% 30.10 in 10.0 mi South 3.5 mph - N/A   Clear
3:51 PM 46.4 °F 44.3 °F 28.4 °F 50% 30.09 in 10.0 mi SSE 4.6 mph - N/A   Clear
4:11 PM 46.4 °F - 28.4 °F 50% 30.09 in 10.0 mi Calm Calm - N/A   Clear
4:32 PM 44.6 °F 42.2 °F 28.4 °F 53% 30.10 in 10.0 mi SE 4.6 mph - N/A   Clear
4:51 PM 39.2 °F 37.0 °F 26.6 °F 61% 30.10 in 10.0 mi South 3.5 mph - N/A   Clear
5:11 PM 39.2 °F - 28.4 °F 65% 30.10 in 10.0 mi Calm Calm - N/A   Clear
5:31 PM 39.2 °F 37.0 °F 28.4 °F 65% 30.09 in 10.0 mi SE 3.5 mph - N/A   Clear
5:51 PM 35.6 °F - 28.4 °F 75% 30.09 in 10.0 mi Calm Calm - N/A   Clear
6:11 PM 35.6 °F 32.8 °F 28.4 °F 75% 30.08 in 10.0 mi East 3.5 mph - N/A   Clear
6:32 PM 37.4 °F 33.8 °F 28.4 °F 70% 30.08 in 10.0 mi SSE 4.6 mph - N/A   Clear
6:51 PM 35.6 °F 31.7 °F 28.4 °F 75% 30.08 in 10.0 mi SSE 4.6 mph - N/A   Clear
7:11 PM 37.4 °F 33.8 °F 28.4 °F 70% 30.07 in 10.0 mi SE 4.6 mph - N/A   Clear
7:32 PM 37.4 °F - 30.2 °F 75% 30.06 in 10.0 mi Calm Calm - N/A   Clear
7:51 PM 37.4 °F - 30.2 °F 75% 30.06 in 10.0 mi Calm Calm - N/A   Clear
8:11 PM 35.6 °F - 30.2 °F 81% 30.06 in 10.0 mi Calm Calm - N/A   Clear
8:32 PM 35.6 °F - 28.4 °F 75% 30.05 in 10.0 mi Calm Calm - N/A   Clear
8:51 PM 35.6 °F 31.7 °F 28.4 °F 75% 30.05 in 10.0 mi SE 4.6 mph - N/A   Clear
9:11 PM 35.6 °F 31.7 °F 30.2 °F 81% 30.04 in 10.0 mi SE 4.6 mph - N/A   Clear
9:32 PM 35.6 °F 31.7 °F 30.2 °F 81% 30.04 in 10.0 mi SSE 4.6 mph - N/A   Clear
9:51 PM 37.4 °F 33.8 °F 30.2 °F 75% 30.04 in 10.0 mi SSE 4.6 mph - N/A   Clear
10:11 PM 37.4 °F 34.9 °F 30.2 °F 75% 30.04 in 10.0 mi South 3.5 mph - N/A   Clear
10:32 PM 37.4 °F 34.9 °F 30.2 °F 75% 30.04 in 10.0 mi SE 3.5 mph - N/A   Clear
10:51 PM 39.2 °F 35.0 °F 30.2 °F 70% 30.02 in 10.0 mi SE 5.8 mph - N/A   Clear
11:11 PM 39.2 °F 34.2 °F 32.0 °F 75% 30.02 in 10.0 mi SSE 6.9 mph - N/A   Clear
11:32 PM 41.0 °F 35.2 °F 32.0 °F 70% 30.01 in 10.0 mi SSE 9.2 mph - N/A   Clear
11:51 PM 41.0 °F 35.2 °F 30.2 °F 65% 30.01 in 10.0 mi SSE 9.2 mph - N/A   Clear